Preview of NWS' New Version of Forecast
This preview is not operational and should not be used for support decisions.

Regional Weather Roundup (RWR)

Issued by National Weather Service (NWS)

                            
000
ASUS46 KPQR 190910
RWROR 

OREGON REGIONAL WEATHER ROUNDUP
NATIONAL WEATHER SERVICE PORTLAND OR
200 AM PDT MON AUG 19 2019

NOTE: "FAIR" INDICATES FEW OR NO CLOUDS BELOW 12,000 FEET WITH
NO SIGNIFICANT WEATHER AND/OR OBSTRUCTIONS TO VISIBILITY.

ORZ001>013-191000-
NORTHWEST OREGON

  
CITY           SKY/WX    TMP DP  RH WIND       PRES   REMARKS
ASTORIA        PTCLDY    54  53  97 SE3       29.94R                  
TILLAMOOK      CLEAR     54  52  94 CALM      29.96R                  
NEWPORT        PTCLDY    54  52  94 CALM      29.98S                  
FLORENCE       CLOUDY    57  54  88 CALM      29.96R                  
PORTLAND       CLEAR     62  54  74 N6        29.92R                  
VANCOUVER WA   CLEAR     62  54  74 N5        29.92R                  
SCAPPOOSE      CLEAR     60  54  80 N6        29.92R                  
HILLSBORO      CLEAR     56  51  84 CALM      29.92R                  
AURORA         CLEAR     61  53  75 CALM      29.93R                  
MCMINNVILLE    CLEAR     57  53  86 W5        29.92R                  
SALEM          CLEAR     59  53  80 CALM      29.92R                  
CORVALLIS      CLEAR     59  55  87 NW10      29.94R                  
EUGENE         CLEAR     59  53  80 SW6       29.94R                  
CRESWELL       CLEAR     61  54  77 SW6       29.93R                  
$$

ORZ021-028-191000-
SOUTHWEST OREGON

  
CITY           SKY/WX    TMP DP  RH WIND       PRES   REMARKS
NORTH BEND     CLOUDY    62  58  86 CALM      29.98S                  
BROOKINGS      LGT RAIN  54  52  94 SE5       29.96S FOG              
ROSEBURG       CLEAR     63  53  70 N5        29.95R                  
SEXTON SUMMIT  CLEAR     57  52  83 N7        30.00S                  
GRANTS PASS    FAIR      63  52  67 CALM      29.94R                  
MEDFORD        CLEAR     71  49  45 NW8       29.89R                  
$$

ORZ014>016-041-191000-
COLUMBIA GORGE

  
CITY           SKY/WX    TMP DP  RH WIND       PRES   REMARKS
TROUTDALE      CLEAR     62  55  77 VRB3      29.92R                  
HOOD RIVER     CLEAR     59  52  77 CALM      29.86R                  
THE DALLES     CLEAR     70  52  52 W15       29.80R                  
$$

ORZ029>031-041-044-049-050-061>064-502-503-505>511-191000-
EASTERN OREGON

  
CITY           SKY/WX    TMP DP  RH WIND       PRES   REMARKS
MADRAS         CLEAR     54  41  62 S5        29.93R                  
REDMOND        CLEAR     54  41  61 S3        29.93R                  
BEND           CLEAR     57  45  62 CALM      29.95R                  
PRINEVILLE     CLEAR     54  43  66 SW3       29.93S                  
KLAMATH FALLS  CLEAR     56  49  77 SE6       30.00R                  
LAKEVIEW       CLEAR     58  40  51 SE12      30.04S                  
HERMISTON      CLEAR     73  47  39 SW8       29.77R                  
PENDLETON      CLEAR     64  40  41 N3        29.81R                  
JOHN DAY       CLEAR     65  41  41 SW6       29.94S                  
MEACHAM        CLEAR     47  41  80 CALM      29.93S                  
LA GRANDE      CLEAR     54  45  71 S3        29.88R                  
BAKER CITY     CLEAR     58  46  64 CALM      29.90S                  
BURNS          CLEAR     65  37  35 W8        29.94R                  
ROME             N/A     70  26  19 SW5       29.91R                  
ONTARIO        CLEAR     62  49  62 W3        29.79S                  
$$